Date,TemperatureHighF,TemperatureAvgF,TemperatureLowF,DewpointHighF,DewpointAvgF,DewpointLowF,HumidityHigh,HumidityAvg,HumidityLow,PressureMaxIn,PressureMinIn,WindSpeedMaxMPH,WindSpeedAvgMPH,GustSpeedMaxMPH,PrecipitationSumIn
2013-9-1,58.1,55.0,51.8,55.2,49.9,45.0,94,83,72,30.22,30.07,28,9,33,0.00
2013-9-2,68.0,61.8,56.8,61.0,57.5,55.2,96,86,72,30.22,30.01,30,10,30,0.00
2013-9-3,69.6,62.7,57.2,62.1,56.6,50.9,96,82,58,30.22,30.16,20,6,20,0.00
2013-9-4,66.7,59.6,52.7,57.4,50.8,46.0,95,74,53,30.16,29.89,18,4,18,0.00
2013-9-5,64.2,57.3,51.1,53.1,47.0,39.6,90,71,45,29.89,29.86,16,3,17,0.00
2013-9-6,57.4,51.8,47.3,47.5,45.1,40.1,94,79,54,29.92,29.86,22,5,23,0.25
2013-9-7,57.9,52.0,46.9,53.6,48.3,43.5,98,88,73,29.92,29.75,22,7,22,0.41
2013-9-8,57.9,51.1,43.3,48.9,44.7,40.6,95,80,59,29.98,29.92,11,3,11,0.00
2013-9-9,61.2,52.7,47.3,51.1,47.2,42.4,95,83,53,30.13,29.92,14,2,14,0.00
2013-9-10,61.9,55.4,49.5,47.3,44.9,42.1,85,69,52,30.22,30.13,28,8,28,0.00
2013-9-11,59.5,55.6,51.1,56.5,52.4,46.4,97,89,76,30.22,30.04,8,2,8,0.08
2013-9-12,66.6,59.2,54.9,59.5,56.4,53.8,97,91,72,30.07,29.86,17,4,17,0.05
2013-9-13,56.5,52.9,48.6,54.9,48.1,43.3,94,84,68,30.07,29.95,11,2,11,0.04
2013-9-14,59.2,51.3,44.2,45.5,42.8,39.9,91,74,52,30.04,29.89,13,4,13,0.00
2013-9-15,57.6,50.3,42.4,57.0,46.3,39.2,98,87,67,29.89,29.16,39,11,40,0.49
2013-9-16,54.3,46.2,39.7,46.0,41.4,38.1,95,84,65,29.30,29.24,29,8,30,0.00
2013-9-17,55.0,48.4,43.5,47.3,42.3,39.4,88,80,65,29.36,29.24,19,6,20,0.00
2013-9-18,55.2,47.4,40.8,48.0,41.2,38.8,96,80,58,29.69,29.36,31,7,31,0.00
2013-9-19,51.4,47.5,43.7,50.4,46.4,41.0,98,96,87,29.75,29.51,13,4,13,0.37
2013-9-20,58.3,51.4,43.7,53.4,48.0,43.2,98,89,72,30.01,29.75,17,5,17,0.00
2013-9-21,60.1,55.2,49.6,58.3,53.1,47.8,98,93,89,30.07,30.01,15,4,17,0.00
2013-9-22,65.7,60.8,56.3,60.4,57.4,54.5,98,89,72,30.25,30.07,26,7,26,0.00
2013-9-23,63.5,57.4,52.3,59.7,55.5,51.6,98,94,82,30.25,30.10,10,3,11,0.00
2013-9-24,60.3,57.1,55.0,58.3,55.8,54.5,98,96,91,30.10,29.95,10,3,10,0.00
2013-9-25,55.4,52.6,46.2,54.9,50.2,43.7,98,92,72,30.04,29.89,17,6,17,0.00
2013-9-26,56.3,50.0,42.3,50.7,46.1,40.6,97,87,65,30.10,30.04,12,-4,13,0.00
2013-9-27,59.5,54.6,51.3,56.8,53.1,50.4,98,95,89,30.04,29.92,6,1,6,0.01
2013-9-28,64.2,56.2,50.5,58.1,52.2,49.5,98,87,64,29.92,29.86,10,2,11,0.00
2013-9-29,59.2,53.0,47.8,53.1,49.4,46.8,98,88,69,29.92,29.89,18,6,20,0.00
2013-9-30,57.7,53.9,51.3,52.0,49.9,46.2,97,87,74,29.92,29.83,21,8,23,0.00